This is the latest recevied weather packets stored in our database for station/object IU5JAE-13. If no packets are shown the sender has not sent any weather packets the latest 10 day(s).
| Time | Temp. | Humidity | Pressure | Rain* | Wind** | Luminosity | Snow |
|---|---|---|---|---|---|---|---|
| 1777961120 | 11.11° C | 98% | 1012.6 hPa | 5.33 mm | - | 18 W/m² | - |
| 1777960518 | 11.11° C | 98% | 1012.6 hPa | 9.4 mm | - | 7 W/m² | - |
| 1777959917 | 11.11° C | 98% | 1012.6 hPa | 12.45 mm | - | 5 W/m² | - |
| 1777959333 | 11.11° C | 97% | 1012.6 hPa | 16.76 mm | - | 5 W/m² | - |
| 1777958731 | 11.11° C | 97% | 1012.7 hPa | 19.56 mm | - | 5 W/m² | - |
| 1777958128 | 11.11° C | 97% | 1013 hPa | 19.56 mm | - | 4 W/m² | - |
| 1777957526 | 11.11° C | 97% | 1013.3 hPa | 17.78 mm | - | 2 W/m² | - |
| 1777956923 | 11.11° C | 97% | 1013 hPa | 13.72 mm | - | 1 W/m² | - |
| 1777956321 | 11.11° C | 97% | 1012.9 hPa | 9.91 mm | - | 0 W/m² | - |
| 1777955718 | 11.11° C | 96% | 1012.7 hPa | 5.33 mm | - | 1 W/m² | - |
| 1777955116 | 11.11° C | 96% | 1012.8 hPa | 2.29 mm | - | 1 W/m² | - |
| 1777954534 | 11.11° C | 96% | 1012.8 hPa | 1.27 mm | - | 1 W/m² | - |
| 1777953931 | 11.11° C | 96% | 1012.8 hPa | 1.02 mm | - | 0 W/m² | - |
| 1777953329 | 11.11° C | 96% | 1012.9 hPa | 1.27 mm | - | 0 W/m² | - |
| 1777952726 | 11.11° C | 96% | 1013 hPa | 1.78 mm | - | 0 W/m² | - |
| 1777952124 | 11.11° C | 96% | 1013.1 hPa | 2.03 mm | - | 0 W/m² | - |
| 1777951522 | 11.11° C | 95% | 1013.3 hPa | 3.81 mm | - | 0 W/m² | - |
| 1777950920 | 11.11° C | 95% | 1013.4 hPa | 4.83 mm | - | 0 W/m² | - |
| 1777950317 | 11.11° C | 95% | 1013.5 hPa | 5.33 mm | - | 0 W/m² | - |
| 1777949734 | 11.11° C | 95% | 1013.8 hPa | 5.59 mm | - | 0 W/m² | - |
| 1777949132 | 11.11° C | 94% | 1013.9 hPa | 5.59 mm | - | 0 W/m² | - |
| 1777948530 | 11.11° C | 94% | 1013.9 hPa | 5.59 mm | - | 0 W/m² | - |
| 1777947927 | 11.67° C | 94% | 1014.2 hPa | 4.06 mm | - | 0 W/m² | - |
| 1777947325 | 11.67° C | 93% | 1014.2 hPa | 3.3 mm | - | 0 W/m² | - |
| 1777946722 | 11.67° C | 93% | 1014.3 hPa | 3.05 mm | - | 0 W/m² | - |
* Rain latest hour (hover to see other rain measurements)
** Current wind speed in m/s (hover to see current wind gust speed)